AirNav   ProFlight Series 2 Aviation Headset
 
 301 users online  

MI43 Baraga County Memorial Hospital Heliport
L'Anse, Michigan, USA

GOING TO L'ANSE?


FAA INFORMATION EFFECTIVE 18 JUNE 2020

Location

FAA Identifier: MI43
Lat/Long: 46-43-54.1200N 088-25-24.6200W
46-43.902000N 088-25.410333W
46.7317000,-88.4235056
(estimated)
Elevation: 985 ft. / 300 m (estimated)
From city: 2 miles SE of L'ANSE, MI
Time zone: UTC -4 (UTC -5 during Standard Time)
Zip code: 49946

Heliport Operations

Heliport use: Private use. Permission required prior to landing
Activation date: 08/2019
Control tower: no
ARTCC: MINNEAPOLIS CENTER
FSS: GREEN BAY FLIGHT SERVICE STATION
Attendance: 
Segmented circle: no

Nearby radio navigation aids

VOR radial/distance  VOR name  Freq  Var
CMXr176/26.4HOUGHTON VOR/DME112.8002W

Heliport Services

Runway Information

Helipad H1

Dimensions: 40 x 40 ft. / 12 x 12 m
Surface: concrete, in good condition
Latitude: 46-43.902000N
Longitude: 088-25.410333W
Elevation: 985.0 ft.
Traffic pattern: leftleft

Heliport Ownership and Management from official FAA records

Ownership: Privately-owned
Owner: BARAGA COUNTY MEMORIAL HOSPITAL
18341 HIGHWAY 41
L'ANSE, MI 49946
Phone 906-524-3300
Manager: BARAGA MEMORIAL HOSPITAL
18341 HIGHWAY 41
L'ANSE, MI 49946
Phone 906-524-3300

Heliport Operational Statistics

Aircraft based on the field: 4
Single engine airplanes: 1
Multi engine airplanes: 1
Helicopters: 1
Gliders airplanes: 1
    

Instrument Procedures

There are no published instrument procedures at MI43.

Some nearby airports with instrument procedures:

KCMX - Houghton County Memorial Airport (26 nm N)
KOGM - Ontonagon County Airport - Schuster Field (39 nm W)
KLNL - Kings Land O' Lakes Airport (48 nm SW)
KSAW - Sawyer International Airport (48 nm SE)
KIMT - Ford Airport (56 nm S)
 
Loc | Ops | Rwys | IFR | FBO | Links
Com | Nav | Svcs | Stats | Notes
Aerial photo
No photo
 
Airport distance calculator
Flying to Baraga County Memorial Hospital Heliport? Find the distance to fly.

From to MI43

Sunrise and sunset
Times for 15-Jul-2020
 Local
(UTC-4)
 Zulu
(UTC)
Morning civil twilight05:3909:39
Sunrise06:1710:17
Sunset21:4301:43
Evening civil twilight22:2002:20

Current date and time
Zulu (UTC)  15-Jul-2020 09:18:32
Local (UTC-4)  15-Jul-2020 05:18:32
 
METAR
KCMX 
26nm N 
150853Z AUTO 29006KT 10SM CLR 16/13 A2993 RMK AO2 SLP133 T01560133 58003
KLNL 
48nm SW 
150855Z AUTO 00000KT M1/4SM FG VV000 11/11 A3001 RMK AO2 T01110110
KSAW 
48nm SE 
150858Z AUTO 32004KT 10SM BKN045 OVC060 18/16 A2995 RMK AO2 60001 T01760161
KP59 
49nm NE 
150851Z AUTO VRB05KT 17/13 A2990 RMK AO1 SLP122 T01720133 58001
TAF
KCMX 
26nm N 
150537Z 1506/1606 28007KT P6SM SKC FM151600 24008KT P6SM SCT200 FM152300 20006KT P6SM FEW200
NOTAMs
Click for the latest NOTAMs
NOTAMs are issued by the DoD/FAA and will open in a separate window not controlled by AirNav.

 

 
 

Would you like to see your business listed on this page?

 If your business provides an interesting product or service to pilots, flight crews, aircraft, or users of the Baraga County Memorial Hospital Heliport, you should consider listing it here.  To start the listing process, click on the button below
 
Add a business
 

Other Pages about Baraga County Memorial Hospital Heliport

Update a link
 
Copyright © AirNav, LLC. All rights reserved. Privacy Policy  Contact